Tracking 35036 objects as of 15-Aug-2026
HD Live streaming from Space Station
objects crossing your sky now

SAFIR 1A R/B


SAFIR 1A R/B is no longer on orbit


NORAD ID: 37676
Int'l Code: 2011-025B
Launch date: June 15, 2011
Source: Iran (IRAN)
Launch site: Semnan, Iran (SEM)
Decay date: 2011-07-01

Note: This is a ROCKET BODY
Your satellite tracking list
Your tracking list is empty




NASA's NSSDC Master Catalog

Two Line Element Set (TLE):
1 37676U 11025B   11182.00842650  .12677145  12392-4  11092-3 0  9996
2 37676 055.6847 227.9958 0012764 038.5014 324.2405 16.50914164  2525
Source of the keplerian elements: AFSPC